Regional Weather Roundup
Issued by NWS

Home | Current Version | Previous Version | Graphics & Text | Print | Product List | Glossary On
Versions: 1 2 3 4 5 6 7 8 9 10 11 12 13 14 15 16 17 18 19 20 21 22 23 24 25 26 27 28 29 30 31 32 33 34 35 36 37 38 39 40 41 42 43 44 45 46 47 48 49 50
000
ASUS43 KLMK 262010
RWRKY
KENTUCKY REGIONAL WEATHER ROUNDUP
NATIONAL WEATHER SERVICE LOUISVILLE KY
400 PM EDT FRI AUG 26 2016

NOTE "FAIR" INDICATES FEW OR NO CLOUDS BELOW 12,000 FEET
WITH NO SIGNIFICANT WEATHER AND/OR OBSTRUCTIONS TO VISIBILITY.

KYZ001>023-026-027-061>063-070>075-262100-
WESTERN AND SOUTH CENTRAL KENTUCKY

CITY           SKY/WX    TMP DP  RH WIND       PRES   REMARKS
PADUCAH        MOSUNNY   94  73  50 VRB3      30.03F HX 103
HENDERSON      PTSUNNY   91  73  55 S6        30.04S HX 100
OWENSBORO      PTSUNNY   91  74  57 E3        30.06F HX 100
HOPKINSVILLE   MOSUNNY   90  74  59 NE3       30.05S HX  99
BOWLING GREEN  PTSUNNY   94  74  52 VRB5      30.05F HX 104
GLASGOW        SUNNY     92  70  47 E3        30.07F HX  98
$$

KYZ024-025-028>034-038-045-046-053-262100-
NORTH CENTRAL KENTUCKY

CITY           SKY/WX    TMP DP  RH WIND       PRES   REMARKS
LOUISVILLE/SDF PTSUNNY   91  68  46 E7        30.05F HX  95
LOUISVILLE/LOU SUNNY     92  67  43 CALM      30.06F HX  95
FORT KNOX      MOSUNNY   89  71  55 NE7       30.05F HX  94
$$

KYZ035>037-039>044-047>052-055>060-089>105-262100-
NORTHEAST KENTUCKY

CITY           SKY/WX    TMP DP  RH WIND       PRES   REMARKS
LEXINGTON      PTSUNNY   92  68  45 CALM      30.10F HX  96
COVINGTON      PTSUNNY   89  72  56 CALM      30.08F HX  96
FRANKFORT      SUNNY     91  67  44 SE7       30.08F HX  94
$$

KYZ054-064>069-076>088-106>120-262100-
SOUTHEAST KENTUCKY

CITY           SKY/WX    TMP DP  RH WIND       PRES   REMARKS
JACKSON        SUNNY     88  70  55 CALM      30.14F HX  93
LONDON         SUNNY     88  67  49 NE6       30.11F HX  91
SOMERSET       SUNNY     90  66  45 E3        30.10F HX  92
MIDDLESBORO    PTSUNNY   91  71  53 NE8       30.11F HX  97
MONTICELLO     PTCLDY   N/A N/A N/A N16G22    30.10F
$$





USA.gov is the U.S. government's official web portal to all federal, state and local government web resources and services.